Location: Unspecified
(0.0000°N, 0.0000°E)
Time: 11:42:54
(UTC+00:00)

Tiros 1 - Pass Details

Date: 20 November 2019
Orbit: 630 x 664 km, 48.4° (Epoch: 07 December)

Event Time Altitude Azimuth Distance (km) Brightness Sun altitude
Rises 22:39:42 0° 315° (NW) 2,947 - -64.5°
Reaches altitude 10° 22:42:02 10° 311° (NW) 2,045 - -64.8°
Maximum altitude 22:46:42 61° 232° (SW) 744 - -65.5°
Drops below altitude 10° 22:51:25 10° 151° (SSE) 2,070 - -66.2°
Sets 22:53:48 0° 148° (SSE) 2,987 - -66.5°
